SWR5DL LSZH-LICJ

Flight info

Callsign SWR5DL
Flight time 1h 43m
Altitude 35000
Route VEBIT T53 GERSA N850 SOSON DCT ODINA DCT LUKIM DCT EVROG DCT POKAV DCT GIANO
Aircraft A321/M-SDE3FGHIRWY/LB1

Departure

Time 2026-05-05 15:38
Airport Zürich Airport (LSZH)

Arrival

Time 2026-05-05 17:22
Airport Falcone–Borsellino Airport (LICJ)
Time Latitude Longitude Altitude Speed Heading
2026-05-05 15:09 47.45335 8.55807 1407 ft 0 kts
2026-05-05 15:25 47.45332 8.55806 1407 ft 0 kts
2026-05-05 15:25 47.45319 8.55804 1413 ft 3 kts
2026-05-05 15:25 47.45300 8.55801 1411 ft 3 kts
2026-05-05 15:26 47.45282 8.55799 1409 ft 3 kts 349°
2026-05-05 15:26 47.45266 8.55812 1409 ft 3 kts 295°
2026-05-05 15:26 47.45261 8.55828 1407 ft 0 kts 281°
2026-05-05 15:26 47.45260 8.55845 1407 ft 0 kts 265°
2026-05-05 15:29 47.45259 8.55822 1411 ft 7 kts 265°
2026-05-05 15:30 47.45264 8.55730 1407 ft 9 kts 277°
2026-05-05 15:30 47.45271 8.55635 1406 ft 8 kts 275°
2026-05-05 15:30 47.45299 8.55561 1408 ft 9 kts 328°
2026-05-05 15:30 47.45364 8.55516 1408 ft 11 kts 335°
2026-05-05 15:31 47.45443 8.55462 1404 ft 14 kts 335°
2026-05-05 15:31 47.45533 8.55400 1403 ft 15 kts 335°
2026-05-05 15:31 47.45584 8.55365 1401 ft 8 kts 335°
2026-05-05 15:31 47.45637 8.55337 1404 ft 8 kts 358°
2026-05-05 15:32 47.45667 8.55375 1407 ft 4 kts 70°
2026-05-05 15:32 47.45668 8.55434 1401 ft 9 kts 90°
2026-05-05 15:32 47.45661 8.55541 1408 ft 12 kts 95°
2026-05-05 15:32 47.45653 8.55657 1405 ft 10 kts 96°
2026-05-05 15:33 47.45646 8.55751 1409 ft 9 kts 96°
2026-05-05 15:33 47.45639 8.55857 1408 ft 11 kts 96°
2026-05-05 15:33 47.45630 8.55986 1412 ft 14 kts 96°
2026-05-05 15:33 47.45618 8.56149 1417 ft 17 kts 96°
2026-05-05 15:34 47.45606 8.56310 1415 ft 14 kts 96°
2026-05-05 15:34 47.45597 8.56438 1417 ft 11 kts 95°
2026-05-05 15:34 47.45591 8.56536 1419 ft 7 kts 96°
2026-05-05 15:34 47.45585 8.56615 1417 ft 10 kts 96°
2026-05-05 15:35 47.45577 8.56718 1424 ft 9 kts 96°
2026-05-05 15:35 47.45572 8.56801 1420 ft 8 kts 95°
2026-05-05 15:35 47.45565 8.56904 1420 ft 12 kts 95°
2026-05-05 15:35 47.45582 8.56999 1422 ft 7 kts 46°
2026-05-05 15:36 47.45617 8.57015 1424 ft 6 kts
2026-05-05 15:36 47.45654 8.56994 1424 ft 5 kts 316°
2026-05-05 15:36 47.45666 8.56943 1424 ft 6 kts 278°
2026-05-05 15:36 47.45667 8.56927 1424 ft 0 kts 277°
2026-05-05 15:37 47.45668 8.56925 1424 ft 3 kts 277°
2026-05-05 15:38 47.45687 8.56658 1417 ft 64 kts 275°
2026-05-05 15:38 47.45755 8.55611 1404 ft 138 kts 275°
2026-05-05 15:38 47.45874 8.53940 1648 ft 173 kts 275°
2026-05-05 15:38 47.46001 8.52133 2372 ft 181 kts 275°
2026-05-05 15:39 47.46133 8.50245 2915 ft 192 kts 275°
2026-05-05 15:39 47.46173 8.48204 3361 ft 207 kts 256°
2026-05-05 15:39 47.45374 8.46430 4070 ft 216 kts 223°
2026-05-05 15:39 47.44213 8.44906 4680 ft 233 kts 224°
2026-05-05 15:40 47.43066 8.43064 4925 ft 253 kts 231°
2026-05-05 15:40 47.41986 8.40966 5509 ft 260 kts 233°
2026-05-05 15:40 47.40924 8.38780 6189 ft 263 kts 234°
2026-05-05 15:40 47.39855 8.36565 6844 ft 266 kts 233°
2026-05-05 15:41 47.38681 8.34452 7506 ft 268 kts 220°
2026-05-05 15:41 47.37058 8.33113 8177 ft 271 kts 197°
2026-05-05 15:41 47.35174 8.32921 8823 ft 276 kts 172°
2026-05-05 15:41 47.33387 8.33996 9469 ft 284 kts 146°
2026-05-05 15:42 47.31891 8.35885 10026 ft 290 kts 142°
2026-05-05 15:42 47.30337 8.37934 10176 ft 310 kts 141°
2026-05-05 15:42 47.28681 8.40118 10305 ft 328 kts 141°
2026-05-05 15:42 47.26936 8.42422 10492 ft 344 kts 140°
2026-05-05 15:43 47.25099 8.44726 10947 ft 348 kts 147°
2026-05-05 15:43 47.23016 8.46541 11477 ft 349 kts 156°
2026-05-05 15:43 47.20840 8.48162 12021 ft 352 kts 156°
2026-05-05 15:43 47.18639 8.49791 12601 ft 355 kts 157°
2026-05-05 15:44 47.16341 8.51129 13129 ft 354 kts 168°
2026-05-05 15:44 47.13937 8.51900 13692 ft 356 kts 172°
2026-05-05 15:44 47.11497 8.52593 14201 ft 358 kts 172°
2026-05-05 15:44 47.09041 8.53272 14717 ft 360 kts 173°
2026-05-05 15:45 47.06571 8.53943 15222 ft 362 kts 172°
2026-05-05 15:45 47.04083 8.54619 15687 ft 366 kts 172°
2026-05-05 15:45 47.01569 8.55302 16113 ft 369 kts 172°
2026-05-05 15:45 46.99042 8.55996 16608 ft 370 kts 172°
2026-05-05 15:46 46.97358 8.56462 16953 ft 371 kts 172°
2026-05-05 15:46 46.93986 8.57400 17607 ft 373 kts 172°
2026-05-05 15:46 46.92267 8.57878 17913 ft 374 kts 172°
2026-05-05 15:46 46.88864 8.58817 18422 ft 376 kts 172°
2026-05-05 15:47 46.87127 8.59295 18670 ft 377 kts 172°
2026-05-05 15:47 46.84549 8.60005 18992 ft 377 kts 173°
2026-05-05 15:47 46.81966 8.60716 19384 ft 378 kts 173°
2026-05-05 15:47 46.79376 8.61427 19744 ft 380 kts 173°
2026-05-05 15:48 46.76774 8.62136 20067 ft 382 kts 173°
2026-05-05 15:48 46.74156 8.62854 20359 ft 383 kts 173°
2026-05-05 15:48 46.71532 8.63575 20737 ft 385 kts 173°
2026-05-05 15:48 46.68893 8.64300 21066 ft 386 kts 173°
2026-05-05 15:49 46.66250 8.65026 21362 ft 387 kts 173°
2026-05-05 15:49 46.63593 8.65752 21728 ft 389 kts 173°
2026-05-05 15:49 46.60928 8.66477 22112 ft 390 kts 173°
2026-05-05 15:49 46.58290 8.67196 22507 ft 392 kts 173°
2026-05-05 15:50 46.55608 8.67928 22858 ft 393 kts 173°
2026-05-05 15:50 46.52909 8.68665 23201 ft 395 kts 174°
2026-05-05 15:50 46.50194 8.69403 23558 ft 397 kts 173°
2026-05-05 15:50 46.47469 8.70139 23816 ft 399 kts 174°
2026-05-05 15:51 46.44729 8.70876 24119 ft 401 kts 174°
2026-05-05 15:51 46.41983 8.71619 24430 ft 402 kts 174°
2026-05-05 15:51 46.39224 8.72366 24757 ft 404 kts 174°
2026-05-05 15:51 46.36455 8.73114 25058 ft 405 kts 174°
2026-05-05 15:52 46.33685 8.73863 25302 ft 405 kts 174°
2026-05-05 15:52 46.30900 8.74616 25552 ft 408 kts 174°
2026-05-05 15:52 46.28100 8.75368 25821 ft 410 kts 175°
2026-05-05 15:52 46.25291 8.76122 26119 ft 412 kts 175°
2026-05-05 15:53 46.22499 8.76873 26411 ft 413 kts 175°
2026-05-05 15:53 46.19672 8.77631 26742 ft 414 kts 175°
2026-05-05 15:53 46.16839 8.78391 27050 ft 415 kts 176°
2026-05-05 15:53 46.14000 8.79153 27277 ft 416 kts 176°
2026-05-05 15:54 46.11142 8.79920 27518 ft 418 kts 176°
2026-05-05 15:54 46.08274 8.80689 27792 ft 419 kts 176°
2026-05-05 15:54 46.05401 8.81461 28058 ft 421 kts 176°
2026-05-05 15:54 46.02511 8.82236 28315 ft 423 kts 176°
2026-05-05 15:55 45.99618 8.83009 28567 ft 424 kts 176°
2026-05-05 15:55 45.96711 8.83784 28765 ft 426 kts 176°
2026-05-05 15:55 45.93799 8.84558 28967 ft 426 kts 176°
2026-05-05 15:55 45.90875 8.85330 29185 ft 427 kts 177°
2026-05-05 15:56 45.87948 8.86103 29379 ft 428 kts 177°
2026-05-05 15:56 45.85019 8.86882 29588 ft 429 kts 177°
2026-05-05 15:56 45.82083 8.87665 29761 ft 430 kts 177°
2026-05-05 15:56 45.79140 8.88446 29960 ft 429 kts 177°
2026-05-05 15:57 45.76276 8.89208 30001 ft 418 kts 177°
2026-05-05 15:57 45.70633 8.90704 30000 ft 410 kts 178°
2026-05-05 15:58 45.65031 8.92170 30000 ft 409 kts 178°
2026-05-05 15:58 45.59435 8.93632 30004 ft 409 kts 178°
2026-05-05 15:59 45.53838 8.95108 29992 ft 409 kts 177°
2026-05-05 15:59 45.48239 8.96577 29991 ft 409 kts 177°
2026-05-05 16:00 45.42646 8.98046 29958 ft 409 kts 177°
2026-05-05 16:00 45.37028 8.99508 29988 ft 412 kts 177°
2026-05-05 16:01 45.31393 9.00962 29976 ft 412 kts 177°
2026-05-05 16:01 45.25791 9.02410 29975 ft 412 kts 177°
2026-05-05 16:02 45.20155 9.03869 29967 ft 412 kts 176°
2026-05-05 16:02 45.14522 9.05330 29965 ft 411 kts 177°
2026-05-05 16:03 45.08890 9.06786 29959 ft 411 kts 177°
2026-05-05 16:03 45.03258 9.08237 29960 ft 411 kts 177°
2026-05-05 16:04 44.97622 9.09686 29945 ft 411 kts 177°
2026-05-05 16:04 44.91989 9.11133 29948 ft 411 kts 177°
2026-05-05 16:05 44.86364 9.12574 29958 ft 411 kts 177°
2026-05-05 16:05 44.80725 9.14019 29947 ft 411 kts 177°
2026-05-05 16:06 44.75080 9.15460 29947 ft 413 kts 177°
2026-05-05 16:06 44.69419 9.16905 29946 ft 414 kts 177°
2026-05-05 16:07 44.63742 9.18342 29956 ft 414 kts 177°
2026-05-05 16:07 44.58070 9.19776 29952 ft 414 kts 177°
2026-05-05 16:08 44.52398 9.21218 29955 ft 414 kts 177°
2026-05-05 16:08 44.46738 9.22660 29958 ft 413 kts 177°
2026-05-05 16:09 44.41087 9.24080 29963 ft 413 kts 177°
2026-05-05 16:09 44.35431 9.25494 29964 ft 413 kts 177°
2026-05-05 16:10 44.29771 9.26914 29960 ft 413 kts 177°
2026-05-05 16:10 44.24111 9.28331 29959 ft 413 kts 177°
2026-05-05 16:11 44.18489 9.29736 29939 ft 413 kts 177°
2026-05-05 16:11 44.10108 9.33091 29945 ft 427 kts 165°
2026-05-05 16:12 44.07367 9.34684 29941 ft 427 kts 165°
2026-05-05 16:13 43.93629 9.42609 29936 ft 429 kts 166°
2026-05-05 16:13 43.88104 9.45782 29940 ft 430 kts 166°
2026-05-05 16:14 43.76998 9.52134 29958 ft 434 kts 166°
2026-05-05 16:15 43.65838 9.58504 29962 ft 434 kts 166°
2026-05-05 16:16 43.54679 9.64831 29942 ft 434 kts 166°
2026-05-05 16:17 43.46305 9.69569 29951 ft 434 kts 166°
2026-05-05 16:18 43.37966 9.74280 29941 ft 434 kts 166°
2026-05-05 16:19 43.29593 9.78994 29956 ft 433 kts 166°
2026-05-05 16:19 43.21262 9.83912 29933 ft 438 kts 162°
2026-05-05 16:20 43.10344 9.91633 29970 ft 442 kts 160°
2026-05-05 16:22 42.96605 10.01000 29949 ft 440 kts 161°
2026-05-05 16:23 42.85622 10.08425 29955 ft 440 kts 161°
2026-05-05 16:23 42.77385 10.13987 29950 ft 440 kts 161°
2026-05-05 16:24 42.71886 10.17688 29949 ft 441 kts 161°
2026-05-05 16:25 42.63642 10.23221 29947 ft 445 kts 161°
2026-05-05 16:25 42.55302 10.28799 29942 ft 445 kts 161°
2026-05-05 16:26 42.44157 10.36238 29961 ft 446 kts 161°
2026-05-05 16:27 42.38621 10.39928 29961 ft 446 kts 161°
2026-05-05 16:27 42.33042 10.43631 29966 ft 446 kts 161°
2026-05-05 16:28 42.27463 10.47327 29965 ft 447 kts 161°
2026-05-05 16:28 42.21881 10.51023 29967 ft 447 kts 161°
2026-05-05 16:29 42.16294 10.54707 29967 ft 447 kts 161°
2026-05-05 16:29 42.10707 10.58372 29946 ft 447 kts 161°
2026-05-05 16:30 42.05112 10.62049 29957 ft 448 kts 161°
2026-05-05 16:30 41.99514 10.65732 29964 ft 448 kts 161°
2026-05-05 16:31 41.93940 10.69389 29970 ft 448 kts 161°
2026-05-05 16:31 41.88326 10.73053 29969 ft 448 kts 161°
2026-05-05 16:32 41.82720 10.76707 29978 ft 448 kts 161°
2026-05-05 16:32 41.77109 10.80360 29982 ft 448 kts 161°
2026-05-05 16:33 41.71502 10.84000 29984 ft 448 kts 161°
2026-05-05 16:33 41.66842 10.87028 29972 ft 448 kts 160°
2026-05-05 16:34 41.61240 10.90654 29985 ft 447 kts 160°
2026-05-05 16:34 41.55629 10.94275 29994 ft 447 kts 161°
2026-05-05 16:35 41.50031 10.97884 29998 ft 446 kts 160°
2026-05-05 16:35 41.44473 11.01467 29987 ft 446 kts 160°
2026-05-05 16:36 41.38874 11.05071 29988 ft 447 kts 160°
2026-05-05 16:36 41.33266 11.08666 29991 ft 447 kts 161°
2026-05-05 16:37 41.27665 11.12241 29995 ft 447 kts 161°
2026-05-05 16:37 41.22055 11.15818 29980 ft 447 kts 160°
2026-05-05 16:38 41.16448 11.19396 29982 ft 447 kts 160°
2026-05-05 16:38 41.10825 11.22979 29992 ft 448 kts 160°
2026-05-05 16:39 41.05232 11.26532 29999 ft 448 kts 160°
2026-05-05 16:39 40.99608 11.30103 29987 ft 448 kts 161°
2026-05-05 16:40 40.93982 11.33659 30013 ft 448 kts 161°
2026-05-05 16:40 40.88354 11.37210 30017 ft 448 kts 161°
2026-05-05 16:41 40.82751 11.40714 30015 ft 447 kts 162°
2026-05-05 16:41 40.77053 11.43923 29989 ft 444 kts 165°
2026-05-05 16:42 40.71306 11.46949 30006 ft 444 kts 165°
2026-05-05 16:42 40.65569 11.50009 29995 ft 445 kts 165°
2026-05-05 16:43 40.59842 11.53138 30003 ft 446 kts 164°
2026-05-05 16:43 40.54112 11.56274 29990 ft 446 kts 164°
2026-05-05 16:44 40.48364 11.59397 29995 ft 446 kts 164°
2026-05-05 16:44 40.42720 11.62467 30019 ft 436 kts 165°
2026-05-05 16:45 40.37103 11.65502 30028 ft 436 kts 165°
2026-05-05 16:45 40.31532 11.68501 30014 ft 437 kts 165°
2026-05-05 16:46 40.25884 11.71534 30030 ft 439 kts 165°
2026-05-05 16:46 40.20233 11.74574 30030 ft 440 kts 164°
2026-05-05 16:47 40.14569 11.77623 30030 ft 439 kts 164°
2026-05-05 16:47 40.08918 11.80661 30030 ft 439 kts 164°
2026-05-05 16:48 40.03258 11.83694 30029 ft 440 kts 165°
2026-05-05 16:48 39.97596 11.86711 30030 ft 440 kts 165°
2026-05-05 16:49 39.91923 11.89730 30035 ft 440 kts 165°
2026-05-05 16:49 39.86260 11.92745 30035 ft 440 kts 165°
2026-05-05 16:50 39.80600 11.95753 30036 ft 439 kts 164°
2026-05-05 16:50 39.74946 11.98756 30034 ft 439 kts 164°
2026-05-05 16:51 39.69287 12.01734 30037 ft 439 kts 164°
2026-05-05 16:51 39.63672 12.04702 30031 ft 438 kts 164°
2026-05-05 16:52 39.58034 12.07688 30038 ft 436 kts 163°
2026-05-05 16:52 39.52425 12.10637 30037 ft 435 kts 163°
2026-05-05 16:53 39.46812 12.13580 30037 ft 435 kts 164°
2026-05-05 16:53 39.44022 12.15046 29571 ft 431 kts 163°
2026-05-05 16:53 39.41255 12.16501 28975 ft 427 kts 163°
2026-05-05 16:54 39.38508 12.17946 28374 ft 424 kts 163°
2026-05-05 16:54 39.35821 12.19354 27809 ft 420 kts 163°
2026-05-05 16:54 39.33118 12.20767 27247 ft 417 kts 163°
2026-05-05 16:54 39.30439 12.22171 26691 ft 413 kts 163°
2026-05-05 16:55 39.27786 12.23559 26134 ft 410 kts 163°
2026-05-05 16:55 39.25156 12.24928 25585 ft 406 kts 163°
2026-05-05 16:55 39.22540 12.26286 25030 ft 403 kts 163°
2026-05-05 16:55 39.19954 12.27631 24600 ft 397 kts 163°
2026-05-05 16:56 39.17408 12.28958 24177 ft 391 kts 163°
2026-05-05 16:56 39.14905 12.30261 23707 ft 387 kts 163°
2026-05-05 16:56 39.12423 12.31553 23193 ft 383 kts 163°
2026-05-05 16:56 39.09960 12.32834 22663 ft 379 kts 163°
2026-05-05 16:57 39.07551 12.34087 22152 ft 376 kts 163°
2026-05-05 16:57 39.05132 12.35343 21632 ft 373 kts 163°
2026-05-05 16:57 39.02735 12.36585 21144 ft 370 kts 163°
2026-05-05 16:57 39.00360 12.37810 20660 ft 367 kts 163°
2026-05-05 16:58 38.98002 12.39025 20170 ft 364 kts 162°
2026-05-05 16:58 38.95665 12.40230 19872 ft 362 kts 162°
2026-05-05 16:58 38.93332 12.41437 19626 ft 362 kts 162°
2026-05-05 16:58 38.91001 12.42641 19387 ft 360 kts 162°
2026-05-05 16:59 38.88740 12.44074 19202 ft 364 kts 153°
2026-05-05 16:59 38.86680 12.45979 19062 ft 368 kts 142°
2026-05-05 16:59 38.84887 12.48334 19012 ft 371 kts 132°
2026-05-05 16:59 38.83342 12.50996 19012 ft 372 kts 129°
2026-05-05 17:00 38.81810 12.53678 18906 ft 373 kts 129°
2026-05-05 17:00 38.80277 12.56345 18679 ft 371 kts 129°
2026-05-05 17:00 38.78742 12.59006 18459 ft 369 kts 130°
2026-05-05 17:00 38.77234 12.61618 18212 ft 368 kts 130°
2026-05-05 17:01 38.75710 12.64250 17946 ft 366 kts 130°
2026-05-05 17:01 38.74197 12.66866 17683 ft 365 kts 129°
2026-05-05 17:01 38.72689 12.69479 17420 ft 364 kts 129°
2026-05-05 17:01 38.71187 12.72078 17161 ft 362 kts 130°
2026-05-05 17:02 38.69691 12.74664 16904 ft 361 kts 129°
2026-05-05 17:02 38.68200 12.77244 16643 ft 360 kts 129°
2026-05-05 17:02 38.66703 12.79830 16390 ft 358 kts 129°
2026-05-05 17:02 38.65219 12.82393 16138 ft 357 kts 129°
2026-05-05 17:03 38.63739 12.84945 15879 ft 356 kts 130°
2026-05-05 17:03 38.62267 12.87480 15531 ft 356 kts 130°
2026-05-05 17:03 38.60770 12.90060 14854 ft 361 kts 130°
2026-05-05 17:03 38.59318 12.92567 14633 ft 351 kts 130°
2026-05-05 17:04 38.57872 12.95054 14265 ft 347 kts 130°
2026-05-05 17:04 38.56434 12.97521 13851 ft 344 kts 131°
2026-05-05 17:04 38.55007 12.99963 13382 ft 342 kts 131°
2026-05-05 17:04 38.53714 13.02486 13103 ft 337 kts 119°
2026-05-05 17:05 38.52775 13.05159 12945 ft 319 kts 117°
2026-05-05 17:05 38.51891 13.07722 12267 ft 313 kts 116°
2026-05-05 17:05 38.51349 13.10346 11662 ft 305 kts 92°
2026-05-05 17:05 38.51756 13.12955 10955 ft 298 kts 62°
2026-05-05 17:06 38.53007 13.14979 10229 ft 288 kts 34°
2026-05-05 17:06 38.54735 13.16161 9472 ft 279 kts 19°
2026-05-05 17:06 38.56514 13.17146 8685 ft 277 kts 20°
2026-05-05 17:06 38.58249 13.18110 8163 ft 266 kts 21°
2026-05-05 17:07 38.59910 13.19049 7661 ft 256 kts 21°
2026-05-05 17:07 38.61515 13.19952 7174 ft 248 kts 21°
2026-05-05 17:07 38.63080 13.20841 6694 ft 243 kts 21°
2026-05-05 17:07 38.64597 13.21688 6179 ft 239 kts 21°
2026-05-05 17:08 38.66139 13.22515 5645 ft 235 kts 21°
2026-05-05 17:08 38.67629 13.23285 5267 ft 226 kts 21°
2026-05-05 17:08 38.69016 13.24103 4917 ft 214 kts 35°
2026-05-05 17:08 38.69976 13.25428 4658 ft 202 kts 63°
2026-05-05 17:09 38.70376 13.27115 4400 ft 190 kts 89°
2026-05-05 17:09 38.70198 13.28718 4158 ft 182 kts 113°
2026-05-05 17:09 38.69548 13.30064 4051 ft 177 kts 135°
2026-05-05 17:09 38.68555 13.30981 4036 ft 178 kts 156°
2026-05-05 17:10 38.67373 13.31450 4036 ft 177 kts 165°
2026-05-05 17:10 38.66189 13.31871 4038 ft 176 kts 165°
2026-05-05 17:10 38.65005 13.32292 4034 ft 178 kts 165°
2026-05-05 17:10 38.63812 13.32719 4037 ft 177 kts 165°
2026-05-05 17:11 38.62633 13.33133 4029 ft 175 kts 167°
2026-05-05 17:11 38.61423 13.33306 4030 ft 175 kts 180°
2026-05-05 17:11 38.60217 13.33107 4030 ft 176 kts 193°
2026-05-05 17:11 38.59066 13.32546 4034 ft 178 kts 203°
2026-05-05 17:12 38.57935 13.31894 4031 ft 179 kts 203°
2026-05-05 17:12 38.56803 13.31251 4034 ft 177 kts 201°
2026-05-05 17:12 38.55680 13.30610 4034 ft 176 kts 202°
2026-05-05 17:12 38.54559 13.29971 4030 ft 177 kts 202°
2026-05-05 17:13 38.53440 13.29337 4034 ft 173 kts 202°
2026-05-05 17:13 38.52368 13.28736 4028 ft 166 kts 202°
2026-05-05 17:13 38.51305 13.28137 4035 ft 167 kts 202°
2026-05-05 17:13 38.50245 13.27540 4034 ft 165 kts 201°
2026-05-05 17:14 38.49198 13.26943 4032 ft 164 kts 202°
2026-05-05 17:14 38.48147 13.26348 4033 ft 167 kts 202°
2026-05-05 17:14 38.47087 13.25748 4034 ft 167 kts 202°
2026-05-05 17:14 38.46030 13.25149 4036 ft 165 kts 202°
2026-05-05 17:15 38.44977 13.24553 4038 ft 166 kts 202°
2026-05-05 17:15 38.43931 13.23961 4039 ft 167 kts 202°
2026-05-05 17:15 38.42874 13.23362 4041 ft 165 kts 201°
2026-05-05 17:15 38.41830 13.22771 4057 ft 164 kts 201°
2026-05-05 17:16 38.40787 13.22182 4042 ft 165 kts 202°
2026-05-05 17:16 38.39735 13.21587 4039 ft 166 kts 202°
2026-05-05 17:16 38.38685 13.20993 4035 ft 165 kts 202°
2026-05-05 17:16 38.37633 13.20399 4034 ft 165 kts 201°
2026-05-05 17:17 38.36584 13.19807 3862 ft 162 kts 201°
2026-05-05 17:17 38.35580 13.19239 3657 ft 154 kts 201°
2026-05-05 17:17 38.34617 13.18695 3456 ft 151 kts 201°
2026-05-05 17:17 38.33653 13.18152 3267 ft 152 kts 201°
2026-05-05 17:18 38.32686 13.17607 3073 ft 152 kts 201°
2026-05-05 17:18 38.31719 13.17062 2870 ft 152 kts 201°
2026-05-05 17:18 38.30757 13.16519 2667 ft 151 kts 200°
2026-05-05 17:18 38.29802 13.15981 2473 ft 151 kts 201°
2026-05-05 17:19 38.28845 13.15442 2279 ft 149 kts 200°
2026-05-05 17:19 38.27890 13.14904 2078 ft 150 kts 201°
2026-05-05 17:19 38.26942 13.14369 1880 ft 149 kts 201°
2026-05-05 17:19 38.26009 13.13845 1687 ft 147 kts 201°
2026-05-05 17:20 38.25072 13.13317 1480 ft 148 kts 201°
2026-05-05 17:20 38.24134 13.12789 1301 ft 147 kts 201°
2026-05-05 17:20 38.23206 13.12267 1116 ft 145 kts 201°
2026-05-05 17:20 38.22275 13.11744 926 ft 147 kts 201°
2026-05-05 17:21 38.21347 13.11222 728 ft 145 kts 201°
2026-05-05 17:21 38.20424 13.10703 536 ft 145 kts 203°
2026-05-05 17:21 38.19511 13.10190 335 ft 141 kts 204°
2026-05-05 17:22 38.17759 13.09204 72 ft 110 kts 204°
2026-05-05 17:22 38.17317 13.08954 65 ft 34 kts 204°
2026-05-05 17:22 38.17121 13.08847 63 ft 24 kts 202°
2026-05-05 17:22 38.17047 13.08775 70 ft 12 kts 262°
2026-05-05 17:23 38.17091 13.08695 62 ft 9 kts 323°
2026-05-05 17:23 38.17126 13.08662 66 ft 10 kts 324°
2026-05-05 17:23 38.17191 13.08619 64 ft 11 kts 353°
2026-05-05 17:23 38.17288 13.08648 65 ft 11 kts 17°
2026-05-05 17:24 38.17352 13.08674 66 ft 8 kts 18°
2026-05-05 17:24 38.17399 13.08693 71 ft 6 kts 18°
2026-05-05 17:24 38.17441 13.08710 68 ft 8 kts 18°
2026-05-05 17:24 38.17480 13.08726 70 ft 9 kts 18°
2026-05-05 17:25 38.17542 13.08768 64 ft 11 kts 33°
2026-05-05 17:25 38.17588 13.08810 61 ft 13 kts 36°
2026-05-05 17:25 38.17683 13.08900 57 ft 13 kts 37°
2026-05-05 17:25 38.17744 13.08977 59 ft 12 kts 58°
2026-05-05 17:26 38.17780 13.09074 62 ft 11 kts 66°
2026-05-05 17:26 38.17808 13.09155 62 ft 8 kts 68°
2026-05-05 17:26 38.17823 13.09201 82 ft 6 kts 68°
2026-05-05 17:26 38.17846 13.09271 65 ft 10 kts 67°
2026-05-05 17:27 38.17878 13.09365 63 ft 14 kts 67°
2026-05-05 17:27 38.17921 13.09493 59 ft 17 kts 67°
2026-05-05 17:27 38.17968 13.09635 62 ft 18 kts 67°
2026-05-05 17:27 38.18019 13.09786 58 ft 19 kts 67°
2026-05-05 17:28 38.18059 13.09906 61 ft 14 kts 67°
2026-05-05 17:28 38.18099 13.10025 62 ft 15 kts 67°
2026-05-05 17:28 38.18141 13.10149 63 ft 16 kts 67°
2026-05-05 17:28 38.18185 13.10279 60 ft 16 kts 67°
2026-05-05 17:29 38.18231 13.10416 63 ft 17 kts 67°
2026-05-05 17:29 38.18279 13.10560 62 ft 18 kts 66°
2026-05-05 17:29 38.18330 13.10709 63 ft 19 kts 66°
2026-05-05 17:29 38.18366 13.10815 57 ft 3 kts 66°
2026-05-05 17:30 38.18374 13.10840 64 ft 0 kts 66°
2026-05-05 17:31 38.18375 13.10842 64 ft 2 kts 66°
2026-05-05 17:31 38.18388 13.10883 62 ft 6 kts 66°
2026-05-05 17:31 38.18413 13.10930 61 ft 7 kts 33°
2026-05-05 17:32 38.18457 13.10922 61 ft 7 kts 317°
2026-05-05 17:32 38.18474 13.10860 63 ft 8 kts 288°
2026-05-05 17:32 38.18494 13.10790 61 ft 6 kts 289°
2026-05-05 17:32 38.18504 13.10729 64 ft 8 kts 261°
2026-05-05 17:33 38.18528 13.10684 63 ft 7 kts 327°
2026-05-05 17:33 38.18543 13.10676 60 ft 0 kts 338°
2026-05-05 17:33 38.18549 13.10673 60 ft 2 kts 338°
2026-05-05 17:33 38.18563 13.10666 62 ft 3 kts 337°
2026-05-05 17:34 38.18568 13.10663 63 ft 0 kts 337°